Preview of NWS' New Version of Forecast
This preview is not operational and should not be used for support decisions.
Latest weather observations around

Bowling Green, Bowling Green-Warren County Regional Airport (KBWG)

Using International System of Units (Switch to English Units)
Date/ Time (CDT) Wind (kph) Vis. (km) Weather Sky Cond. Temp (°C) Rel. Humidity Wind Chill (°C) Heat Index (°C) Pressure Precip. (cm)
Air Dwpt 6 hour Altimeter (hPa) Sea level (hPa) 1 hr 3 hr 6 hr
Max Min
Jun 20 03:53 Calm 16.09 Mostly Cloudy BKN050 21 19     93%     1003.7 1003.2      
Jun 20 02:53 N 5 16.09 Cloudy FEW030 OVC090 21 19     90%     1004.1 1003.5      
Jun 20 02:35 Calm 16.09 Mostly Cloudy SCT030 BKN095 21 19     90%     1004.1        
Jun 20 02:15 Calm 16.09 Mostly Cloudy BKN029 21 19     93%     1004.1        
Jun 20 01:53 Calm 16.09 Clear CLR 20 18     90%     1004.1 1003.6      
Jun 20 00:53 Calm 16.09 Clear CLR 21 19     90%     1004.8 1004.2     1
Jun 19 23:53 SSW 8 16.09 Mostly Clear FEW038 21 18     87%     1005.8 1005.2      
Jun 19 22:53 WSW 5 16.09 Partly Cloudy SCT040 21 18     87%     1006.1 1005.3      
Jun 19 21:53 SW 5 16.09 Mostly Cloudy BKN046 21 18     87%     1005.8 1005.1   1  
Jun 19 20:53 SSW 8 16.09 Partly Cloudy SCT047 SCT065 21 19     87%     1005.1 1004.4 0    
Jun 19 19:53 SW 11 9.66 Rain and Fog/Mist FEW042 SCT080 BKN100 22 19     87%   22 1006.4 1006 1    
Jun 19 19:40 W 9 16.09 Cloudy FEW042 BKN080 OVC100 22 19     87%   22 1006.4   1    
Jun 19 19:12 WNW 11 4.83 Thunderstorms and Rain and Fog/Mist FEW016 BKN035 OVC070 21 20     93%     1006.8   1    
Jun 19 19:04 W 13 2.41 Thunderstorms and Heavy Rain and Fog/Mist BKN033 BKN070 21 19     90%     1007.1   0    
Jun 19 18:57 W 18 1.61 Thunderstorms and Heavy Rain and Fog/Mist BKN020 BKN070 21 19     90%     1007.1   0    
Jun 19 18:53   2.41 Thunderstorms and Heavy Rain FEW013 SCT023 BKN070 23 20     84%   23 1007.1 1006.3 1   1
Jun 19 18:46 WSW 13 16.09 Thunderstorms FEW070 SCT110 26 22     77%   28 1005.8   0    
Jun 19 17:53   16.09 Mostly Clear FEW110 29 20     59%   31 1005.4 1004.8      
Jun 19 16:53 SW 21 16.09 Mostly Cloudy BKN040 30 21     57%   32 1005.4 1004.8      
Jun 19 15:53 ESE 9 16.09 Mostly Cloudy FEW028 SCT042 BKN100 28 23     72%   32 1005.8 1005   0  
Jun 19 14:53 Calm 16.09 Mostly Cloudy FEW041 BKN050 28 22     72%   30 1006.8 1006.3      
Jun 19 14:24 ESE 9 16.09 Partly Cloudy SCT055 27 23     79%   29 1007.5        
Jun 19 14:09 ESE 9 16.09 Mostly Cloudy FEW036 BKN050 26 22     77%   28 1007.5        
Jun 19 13:53 Calm 16.09 Cloudy FEW013 BKN065 OVC085 26 22     79%   26 1007.5 1006.9 0    
Jun 19 13:36 SSE 21 4.83 Rain and Fog/Mist FEW038 BKN070 OVC080 24 22     88%   25 1007.8   0    
Jun 19 13:28 S 17 2.82 Rain FEW038 BKN070 OVC100 24 22     85%   25 1008.1   0    
Jun 19 12:53 SSE 13 16.09 Mostly Cloudy FEW038 BKN048 BKN060 24 22     85%   25 1008.8 1008 0   0
Jun 19 11:53 S 17 16.09 Light Rain FEW022 SCT065 BKN085 24 21     84%   25 1009.2 1008.6 0    
Jun 19 11:45 S 17 16.09 Light Rain FEW022 BKN085 OVC110 23 21     85%   24 1009.5   0    
Jun 19 11:36   16.09 Thunderstorms and Rain SCT022 BKN065 OVC110 24 20     79%   24 1009.5   0    
Jun 19 11:09 W 13 16.09 Cloudy SCT025 SCT044 OVC110 28 22     69%   30 1009.2        
Jun 19 10:53 W 13 16.09 Mostly Cloudy SCT025 SCT044 BKN110 27 22     72%   29 1009.5 1008.9      
Jun 19 10:36 11 16.09 Cloudy SCT023 BKN075 OVC110 27 22     72%   29 1009.8        
Jun 19 10:05 SW 15 16.09 Mostly Cloudy SCT020 BKN029 BKN035 27 22     72%   29 1009.8        
Jun 19 09:53 WSW 8 16.09 Partly Cloudy SCT018 27 21     71%   28 1009.8 1009.3      
Jun 19 09:09 SSW 13 16.09 Partly Cloudy SCT008 26 22     79%   26 1009.8        
Jun 19 08:53 SW 13 16.09 Mostly Cloudy BKN008 25 22     82%   26 1009.8 1009.3      
Jun 19 07:53 SSW 17 16.09 Cloudy OVC006 24 22     88%   25 1009.8 1009.1      
Jun 19 07:28 SSW 15 16.09 Mostly Cloudy BKN006 23 21     87%   24 1009.8        
Jun 19 07:13 SW 17 16.09 Mostly Clear FEW006 23 21     87%   24 1009.8        
Jun 19 06:53 SSW 13 16.09 Clear CLR 23 21     87%   24 1009.2 1008.6      
Jun 19 05:53 SSW 8 16.09 Mostly Clear FEW100 22 21     91%   23 1009.8 1009.2      
Jun 19 05:38 SSW 8 16.09 Mostly Cloudy SCT010 BKN100 22 21     91%   23 1009.8        
Jun 19 04:53 S 5 16.09 Cloudy OVC013 22 21     91%   23 1009.8 1009.1      
Jun 19 04:29 SSW 8 16.09 Mostly Cloudy BKN016 23 21     87%   23 1009.8        
Jun 19 03:53 SSW 8 16.09 Mostly Clear FEW095 23 21     87%   23 1009.8 1009      
Jun 19 02:53 SSW 8 16.09 Clear CLR 22 21     91%   23 1010.2 1009.4      
Jun 19 01:53 SSW 5 16.09 Clear CLR 23 21     87%   23 1010.2 1009.7      
Jun 19 00:53 W 8 16.09 Clear CLR 23 21     87%   24 1010.8 1010.1      
Jun 18 23:53 Calm 16.09 Mostly Clear FEW037 23 22     91%   24 1011.2 1010.5      
Jun 18 22:53 Calm 16.09 Mostly Clear FEW033 FEW050 23 22     91%   24 1011.2 1010.6      
Jun 18 21:53 Calm 16.09 Clear CLR 24 22     88%   25 1010.8 1010.4      
Jun 18 20:53 Calm 16.09 Clear CLR 24 22     85%   25 1010.2 1009.6      
Jun 18 19:53 ESE 8 16.09 Clear CLR 26 22     82%   26 1010.5 1009.8      
Jun 18 18:53 ESE 11 16.09 Mostly Clear FEW029 27 22     74%   30 1010.5 1009.9      
Jun 18 17:53 E 11 16.09 Mostly Cloudy FEW025 BKN043 BKN050 27 22     76%   29 1010.5 1009.9      
Jun 18 16:53 SE 9 16.09 Mostly Cloudy SCT024 SCT034 BKN048 28 22     72%   30 1010.8 1010.3      
Jun 18 15:53 8 16.09 Mostly Cloudy SCT032 BKN060 29 22     65%   32 1011.5 1010.9      
Jun 18 15:32 11 16.09 Partly Cloudy SCT023 SCT032 28 22     67%   31 1011.5        
Jun 18 14:53 5 16.09 Mostly Cloudy SCT019 BKN024 BKN037 28 22     69%   30 1012.2 1011.5      
Jun 18 14:48 Calm 16.09 Mostly Cloudy FEW016 BKN024 BKN037 27 22     74%   29 1012.2        
Jun 18 14:00 WNW 8 16.09 Cloudy FEW016 BKN030 OVC047 24 21     82%   25 1012.9        
Jun 18 13:53 WNW 11 16.09 Cloudy SCT014 BKN028 OVC044 25 21     79%   26 1012.9 1012.2      
Jun 18 12:53 S 18 16.09 Cloudy SCT017 BKN025 OVC070 26 22     77%   28 1012.9 1012.3 0   0
Jun 18 12:12 SSE 9 16.09 Cloudy SCT011 BKN019 OVC025 24 22     85%   25 1013.9   0    
Jun 18 12:01 SE 9 16.09 Cloudy BKN011 BKN018 OVC029 24 21     84%   25 1013.9   0    
Jun 18 11:53 SE 5 16.09 Cloudy SCT011 BKN021 OVC046 24 21     84%   25 1013.9 1013.3 0    
Jun 18 11:39 SE 8 16.09 Light Rain FEW008 BKN033 OVC060 24 21     84%   25 1014.2   0    
Jun 18 11:23 SE 8 16.09 Light Rain FEW008 BKN023 OVC030 23 21     87%   24 1014.6   0    
Jun 18 11:01 SE 8 16.09 Light Rain FEW010 BKN027 OVC040 23 21     87%   23 1014.6   0    
Jun 18 10:53 SE 8 16.09 Light Rain FEW008 BKN030 OVC040 23 21     87%   23 1014.6 1014 0    
Jun 18 10:16 SSE 9 16.09 Cloudy FEW006 BKN075 OVC110 23 21     90%   23 1014.9   0    
Jun 18 10:03 SE 11 8.05 Light Rain and Fog/Mist FEW010 BKN075 OVC110 22 21     91%   23 1014.6   0    
Jun 18 09:53 SSE 11 3.22 Rain and Fog/Mist SCT010 BKN060 OVC090 22 20     90%   22 1014.9 1014.3 0 0  
Jun 18 09:47 SSE 11 4.02 Heavy Rain and Fog/Mist SCT008 BKN060 OVC070 22 20     88%   23 1014.9   0    
Jun 18 09:20 SSE 11 16.09 Cloudy BKN006 BKN038 OVC090 22 21     91%   23 1014.9   0    
Jun 18 09:10 SSE 8 16.09 Light Rain SCT006 BKN033 OVC100 22 20     87%   23 1014.9   0    
Jun 18 08:53 SE 9 12.87 Light Rain BKN006 BKN049 OVC080 22 20     90%   22 1015.2 1014.5 0    
Jun 18 08:02 SSE 8 16.09 Cloudy FEW006 BKN050 OVC080 22 20     90%   22 1015.2        
Jun 18 07:53 SSE 8 16.09 Mostly Cloudy SCT050 BKN090 22 20     90%   22 1015.2 1014.5 0    
Jun 18 06:53 SSE 8 16.09 Light Rain SCT060 OVC100 21 19     90%     1015.2 1014.8 0   1
Jun 18 05:53 S 9 6.44 Rain and Fog/Mist SCT075 OVC090 21 20     93%     1015.2 1014.6 0    
Jun 18 04:53 Calm 16.09 Light Rain FEW095 SCT120 21 19     90%     1014.2 1013.8 0    
Jun 18 03:53 Calm 16.09 Light Rain FEW090 BKN110 22 20     90%   22 1014.9 1014.1 0 0  
Jun 18 02:53 S 5 16.09 Light Rain SCT085 OVC100 22 20     90%   22 1014.9 1014.3 0    
Jun 18 01:53 SSW 5 16.09 Mostly Cloudy BKN100 22 21     91%   23 1014.6 1013.8      
Jun 18 00:53 S 8 16.09 Clear CLR 22 21     91%   23 1014.6 1013.8     0
Jun 17 23:53 S 13 16.09 Cloudy OVC110 23 21     87%   23 1015.2 1014.5 0    
Jun 17 22:53 SSW 18 6.44 Heavy Rain and Fog/Mist FEW044 SCT075 OVC100 23 21     87%   24 1016.3 1015.4 0    
Jun 17 21:53 S 13 16.09 Partly Cloudy SCT120 24 21     84%   25 1015.2 1014.8   0  
Jun 17 20:53 S 8 16.09 Mostly Cloudy FEW080 BKN110 24 22     85%   25 1014.6 1014.1 0    
Jun 17 19:53 SSW 18 12.87 Light Rain SCT050 SCT090 SCT120 26 21     74%   28 1014.6 1014 0    
Jun 17 19:31 S 15 16.09 Clear CLR 27 21     67%   29 1013.9        
Jun 17 18:53 SSE 11 16.09 Mostly Cloudy BKN055 28 22     72%   30 1013.9 1013.4     0
Jun 17 17:53 E 8 16.09 Mostly Cloudy FEW075 BKN095 28 22     70%   31 1013.6 1013      
Jun 17 16:53 W 5 16.09 Clear CLR 29 21     63%   31 1013.2 1012.7 0    
Jun 17 15:53 SSW 15 16.09 Mostly Clear FEW019 FEW120 28 22     69%   30 1014.2 1013.5 0 0  
Jun 17 15:41 S 11 16.09 Light Rain FEW019 SCT046 BKN070 27 22     74%   29 1014.2   0    
Notice The following observation data may not be complete
Jun 17 15:32 SW 17 3.22 Light Rain SCT047 BKN070 OVC120   21      %     1014.6   0    
Jun 17 14:53 WSW 21 16.09 Mostly Clear FEW048 31 19     51%   32 1014.6 1013.8      
Jun 17 13:53 11 16.09 Mostly Cloudy SCT045 BKN055 30 19     53%   32 1015.2 1014.4      
Jun 17 12:53 SW 17 16.09 Clear CLR 29 18     53%   30 1015.6 1014.8      
Jun 17 11:53 SSW 17 16.09 Clear CLR 29 19     57%   30 1015.6 1015      
Jun 17 10:53 S 17 16.09 Clear CLR 29 21     63%   31 1015.6 1014.8      
Jun 17 10:40   16.09 Mostly Clear FEW002 28 21     63%   30 1015.6        
Jun 17 09:53 SSW 11 16.09 Mostly Clear FEW020 27 21     71%   28 1015.6 1015      
Jun 17 08:53 ESE 8 16.09 Mostly Clear FEW040 24 21     82%   24 1015.9 1015.1      
Jun 17 07:53 Calm 16.09 Mostly Cloudy BKN100 23 21     85%   24 1015.9 1015.1      
Jun 17 06:53 Calm 16.09 Partly Cloudy FEW007 SCT045 SCT090 23 20     84%   23 1015.2 1014.6     0
Jun 17 06:34 5 16.09 Mostly Cloudy FEW007 SCT045 BKN095 22 20     87%   23 1015.2        
Jun 17 05:53 S 11 16.09 Mostly Clear FEW042 22 19     87%   22 1014.6 1013.8      
Jun 17 04:53 Calm 16.09 Mostly Cloudy SCT090 BKN110 22 19     84%   23 1013.9 1013.1 0    
May 15 02:53 SSW 5 16.09 Clear CLR 23 19     79%   24 1013.2 1012.6      
May 14 10:53 N 8 16.09 Clear CLR 31 21     55%   33 1017.6 1016.8      
May 11 21:53 S 13 16.09 Clear CLR 25 16     58%   25 1015.6 1015      
Jun 11 22:53 Calm 16.09 Clear CLR 25 18     66%   25 1018.6 1017.9      
Jun 11 09:53 S 13 16.09 Mostly Clear FEW060 28 19     59%   30 1021 1020.5      
Jun 11 08:53 S 13 16.09 Clear CLR 26 18     62%   26 1021.3 1020.6      
Jun 10 21:53 SSE 8 16.09 Clear CLR 22 16     68%   22 1017.6 1017      
Jun 10 11:53 S 21 16.09 Mostly Clear FEW055 28 15     44%   28 1018.3 1017.6      
Jun 09 15:53 11 16.09 Clear CLR 27 12     41%   26 1014.2 1013.7      
Jun 09 02:53 Calm 16.09 Clear   12 12     97%     1013.9 1013.5      
Jun 07 07:53 NE 15 16.09 Clear CLR 18 13     73%     1015.2 1014.6      
Jun 06 04:51 Calm 0.8 Fog VV002 18 18     100%     1010.2        
Jun 06 04:27 Calm 1.21 Fog/Mist OVC002 18 18     100%     1009.8        
Jun 05 13:53 Calm 16.09 Cloudy BKN014 OVC021 24 21     84%   25 1009.5 1008.9